When you browse on this site, cookies collect data to enhance your experience and personalize the content and advertising you see.
Visit our Privacy Policy to learn more. By continuing to use the site, you agree to this use of cookies and data.
  • en Suisse
  • Liste des pays
  • À 7 jours
  • Température de l'eau
  • Carte météo
  • Widgets météo
  • user-avatar
    Se connecter

    Météo par heure à Aylesbury

    Ce jour, 21 Février, Vendredi

    Heure Température Précipitation Vent Pression Humidité
    00:00 +1°C° 0 mm 6 m/s 757 mmHg 85%
    01:00 +1°C° 0 mm 6 m/s 758 mmHg 85%
    02:00 +1°C° 0 mm 6 m/s 758 mmHg 85%
    03:00 +1°C° 0 mm 6 m/s 758 mmHg 85%
    04:00 +1°C° 0 mm 6 m/s 758 mmHg 86%
    05:00 +2°C° 0 mm 7 m/s 758 mmHg 87%
    06:00 +2°C° 0 mm 6 m/s 758 mmHg 87%
    13:00 +6°C° 0 mm 9 m/s 757 mmHg 78%
    14:00 +6°C° 0 mm 9 m/s 757 mmHg 78%
    15:00 +7°C° 0 mm 8 m/s 756 mmHg 77%
    16:00 +7°C° 0 mm 8 m/s 756 mmHg 79%
    17:00 +6°C° 0 mm 8 m/s 756 mmHg 80%
    18:00 +6°C° 0 mm 8 m/s 756 mmHg 82%
    19:00 +6°C° 0 mm 9 m/s 756 mmHg 81%
    20:00 +6°C° 0 mm 9 m/s 755 mmHg 81%
    21:00 +6°C° 0 mm 10 m/s 755 mmHg 81%
    22:00 +6°C° 0 mm 10 m/s 754 mmHg 81%
    23:00 +6°C° 0 mm 11 m/s 754 mmHg 81%

    Demain, 22 Février, Samedi

    Heure Température Précipitation Vent Pression Humidité
    00:00 +6°C° 0 mm 11 m/s 754 mmHg 82%
    01:00 +6°C° 0 mm 11 m/s 753 mmHg 82%
    02:00 +7°C° 0 mm 11 m/s 752 mmHg 83%
    03:00 +7°C° 0 mm 11 m/s 751 mmHg 83%
    04:00 +8°C° 0.3 mm 11 m/s 752 mmHg 84%
    05:00 +8°C° 0.3 mm 11 m/s 752 mmHg 86%
    06:00 +9°C° 0.3 mm 11 m/s 752 mmHg 88%
    07:00 +8°C° 0.1 mm 11 m/s 752 mmHg 84%
    08:00 +8°C° 0.1 mm 11 m/s 753 mmHg 80%
    09:00 +7°C° 0.1 mm 10 m/s 753 mmHg 76%
    10:00 +7°C° 0 mm 10 m/s 754 mmHg 74%
    11:00 +7°C° 0 mm 11 m/s 754 mmHg 73%
    12:00 +8°C° 0 mm 11 m/s 755 mmHg 71%
    13:00 +7°C° 0.1 mm 10 m/s 755 mmHg 70%
    14:00 +7°C° 0.1 mm 10 m/s 756 mmHg 69%
    15:00 +7°C° 0.1 mm 10 m/s 756 mmHg 69%
    16:00 +6°C° 0 mm 9 m/s 756 mmHg 70%
    17:00 +5°C° 0 mm 8 m/s 757 mmHg 72%
    18:00 +5°C° 0 mm 7 m/s 757 mmHg 73%
    19:00 +4°C° 0 mm 7 m/s 757 mmHg 74%
    20:00 +4°C° 0 mm 7 m/s 758 mmHg 75%
    21:00 +4°C° 0 mm 7 m/s 758 mmHg 76%
    22:00 +4°C° 0 mm 7 m/s 758 mmHg 77%
    23:00 +4°C° 0 mm 6 m/s 758 mmHg 77%

    Après-demain, 23 Février, Dimanche

    Heure Température Précipitation Vent Pression Humidité
    00:00 +5°C° 0 mm 6 m/s 758 mmHg 77%
    01:00 +5°C° 0.3 mm 6 m/s 757 mmHg 82%
    02:00 +5°C° 0.3 mm 6 m/s 756 mmHg 87%
    03:00 +5°C° 0.3 mm 6 m/s 755 mmHg 91%
    04:00 +6°C° 0.4 mm 8 m/s 754 mmHg 91%
    05:00 +7°C° 0.4 mm 9 m/s 753 mmHg 91%
    06:00 +9°C° 0.4 mm 11 m/s 751 mmHg 91%
    07:00 +9°C° 0 mm 11 m/s 751 mmHg 89%
    08:00 +10°C° 0 mm 12 m/s 750 mmHg 87%
    09:00 +10°C° 0 mm 12 m/s 750 mmHg 85%
    10:00 +10°C° 0.1 mm 12 m/s 751 mmHg 85%
    11:00 +10°C° 0.1 mm 12 m/s 751 mmHg 85%
    12:00 +10°C° 0.1 mm 12 m/s 752 mmHg 85%
    13:00 +11°C° 0.1 mm 11 m/s 752 mmHg 85%
    14:00 +11°C° 0.1 mm 10 m/s 753 mmHg 84%
    15:00 +10°C° 0.1 mm 8 m/s 754 mmHg 83%
    16:00 +9°C° 0 mm 7 m/s 755 mmHg 82%
    17:00 +7°C° 0 mm 6 m/s 756 mmHg 81%
    18:00 +6°C° 0 mm 4 m/s 757 mmHg 81%
    19:00 +5°C° 0 mm 3 m/s 758 mmHg 81%
    20:00 +6°C° 0 mm 2 m/s 758 mmHg 81%
    21:00 +6°C° 0 mm 1 m/s 759 mmHg 82%
    22:00 +6°C° 0 mm 1 m/s 759 mmHg 81%
    23:00 +6°C° 0 mm 1 m/s 759 mmHg 81%

    24 Février, Lundi

    Heure Température Précipitation Vent Pression Humidité
    00:00 +7°C° 0 mm 1 m/s 759 mmHg 80%
    01:00 +6°C° 0 mm 2 m/s 758 mmHg 80%
    02:00 +5°C° 0 mm 3 m/s 758 mmHg 80%
    03:00 +4°C° 0 mm 4 m/s 757 mmHg 81%
    04:00 +5°C° 0.1 mm 5 m/s 756 mmHg 85%
    05:00 +6°C° 0.1 mm 5 m/s 755 mmHg 90%
    06:00 +7°C° 0.1 mm 6 m/s 754 mmHg 94%
    07:00 +8°C° 0 mm 7 m/s 754 mmHg 92%
    08:00 +7°C° 0 mm 8 m/s 753 mmHg 89%
    09:00 +8°C° 0 mm 9 m/s 752 mmHg 87%
    10:00 +8°C° 0 mm 9 m/s 751 mmHg 85%
    11:00 +8°C° 0 mm 9 m/s 751 mmHg 83%
    12:00 +8°C° 0 mm 10 m/s 750 mmHg 81%
    13:00 +8°C° 0.3 mm 10 m/s 749 mmHg 84%
    14:00 +8°C° 0.3 mm 9 m/s 749 mmHg 86%
    15:00 +8°C° 0.3 mm 9 m/s 748 mmHg 88%
    16:00 +7°C° 0 mm 9 m/s 748 mmHg 86%
    17:00 +6°C° 0 mm 9 m/s 748 mmHg 83%
    18:00 +5°C° 0 mm 9 m/s 748 mmHg 80%
    19:00 +4°C° 0 mm 8 m/s 748 mmHg 81%
    20:00 +2°C° 0 mm 8 m/s 748 mmHg 82%
    21:00 +3°C° 0 mm 7 m/s 749 mmHg 82%
    22:00 +2°C° 0 mm 7 m/s 749 mmHg 82%
    23:00 +2°C° 0 mm 7 m/s 749 mmHg 81%

    25 Février, Mardi

    Heure Température Précipitation Vent Pression Humidité
    00:00 +2°C° 0 mm 7 m/s 749 mmHg 80%
    01:00 +2°C° 0 mm 7 m/s 748 mmHg 79%
    02:00 0°C° 0 mm 7 m/s 748 mmHg 78%
    03:00 0°C° 0 mm 7 m/s 748 mmHg 77%
    04:00 0°C° 0 mm 7 m/s 748 mmHg 77%
    05:00 0°C° 0 mm 7 m/s 748 mmHg 78%
    06:00 0°C° 0 mm 7 m/s 748 mmHg 78%
    07:00 0°C° 0 mm 7 m/s 748 mmHg 77%
    08:00 +2°C° 0 mm 7 m/s 747 mmHg 75%
    09:00 +2°C° 0 mm 7 m/s 747 mmHg 74%
    10:00 +3°C° 0 mm 7 m/s 747 mmHg 74%
    11:00 +4°C° 0 mm 7 m/s 746 mmHg 75%
    12:00 +4°C° 0 mm 8 m/s 746 mmHg 76%
    13:00 +4°C° 0.7 mm 8 m/s 745 mmHg 81%
    14:00 +2°C° 0.7 mm 8 m/s 744 mmHg 86%
    15:00 +1°C° 0.7 mm 8 m/s 743 mmHg 91%
    16:00 +1°C° 0.4 mm 8 m/s 742 mmHg 91%
    17:00 +1°C° 0.4 mm 8 m/s 742 mmHg 90%
    18:00 +1°C° 0.4 mm 8 m/s 741 mmHg 90%
    19:00 +1°C° 0.3 mm 9 m/s 741 mmHg 85%
    20:00 0°C° 0.3 mm 10 m/s 741 mmHg 80%
    21:00 0°C° 0.3 mm 10 m/s 742 mmHg 75%
    22:00 -2°C° 0 mm 10 m/s 742 mmHg 78%
    23:00 -3°C° 0 mm 10 m/s 742 mmHg 81%

    26 Février, Mercredi

    Heure Température Précipitation Vent Pression Humidité
    00:00 -3°C° 0 mm 9 m/s 742 mmHg 83%
    01:00 -3°C° 0 mm 9 m/s 742 mmHg 81%
    02:00 -3°C° 0 mm 9 m/s 743 mmHg 79%
    03:00 -4°C° 0 mm 9 m/s 743 mmHg 77%
    04:00 -3°C° 0 mm 9 m/s 743 mmHg 79%
    05:00 -2°C° 0 mm 8 m/s 743 mmHg 82%
    06:00 -2°C° 0 mm 8 m/s 744 mmHg 84%
    07:00 -1°C° 0 mm 9 m/s 744 mmHg 81%
    08:00 -1°C° 0 mm 9 m/s 745 mmHg 77%
    09:00 0°C° 0 mm 9 m/s 745 mmHg 73%
    10:00 +1°C° 0.1 mm 10 m/s 746 mmHg 70%
    11:00 +2°C° 0.1 mm 10 m/s 746 mmHg 67%
    12:00 +2°C° 0.1 mm 10 m/s 747 mmHg 64%
    13:00 +2°C° 0 mm 10 m/s 747 mmHg 62%
    14:00 +3°C° 0 mm 10 m/s 748 mmHg 61%
    15:00 +3°C° 0 mm 10 m/s 748 mmHg 60%
    16:00 +2°C° 0 mm 9 m/s 749 mmHg 65%
    17:00 +2°C° 0 mm 7 m/s 749 mmHg 71%
    18:00 +1°C° 0 mm 6 m/s 750 mmHg 76%
    19:00 -1°C° 0 mm 6 m/s 750 mmHg 78%
    20:00 0°C° 0 mm 5 m/s 751 mmHg 80%
    21:00 -1°C° 0 mm 5 m/s 751 mmHg 82%
    22:00 -1°C° 0 mm 5 m/s 752 mmHg 83%
    23:00 -1°C° 0 mm 5 m/s 752 mmHg 84%
    Voir plus